CDG2452 VGHS-ZSNJ

Flight info

Callsign CDG2452
Flight time 3h 47m
Altitude 35000
Route ADMIL G463 ONEKA B594 CTG A599 LINSO/K0852S1070 A599 SGM A581 EPGAL/K0839S1130 A581 WHA R343 HFE
Aircraft B738/M-SDE2E3FGHIRWXY/LB1

Departure

Time 2026-04-25 09:20
Airport Hazrat Shahjalal International Airport (VGHS)

Arrival

Time 2026-04-25 13:08
Airport Nanjing Lukou International Airport (ZSNJ)
Time Latitude Longitude Altitude Speed Heading
2026-04-25 08:45 23.85173 90.40089 47 ft 0 kts 53°
2026-04-25 09:10 23.85172 90.40088 47 ft 1 kts 53°
2026-04-25 09:10 23.85160 90.40071 47 ft 2 kts 53°
2026-04-25 09:10 23.85154 90.40062 46 ft 2 kts 53°
2026-04-25 09:11 23.85138 90.40042 46 ft 2 kts 17°
2026-04-25 09:11 23.85121 90.40044 45 ft 0 kts 328°
2026-04-25 09:11 23.85116 90.40048 45 ft 1 kts 322°
2026-04-25 09:12 23.85114 90.40049 45 ft 0 kts 323°
2026-04-25 09:14 23.85115 90.40048 45 ft 0 kts 324°
2026-04-25 09:14 23.85127 90.40040 45 ft 4 kts 327°
2026-04-25 09:14 23.85172 90.40000 46 ft 6 kts 295°
2026-04-25 09:14 23.85170 90.39965 45 ft 7 kts 245°
2026-04-25 09:15 23.85138 90.39917 43 ft 8 kts 232°
2026-04-25 09:15 23.85106 90.39861 42 ft 9 kts 258°
2026-04-25 09:15 23.85141 90.39807 41 ft 10 kts 323°
2026-04-25 09:15 23.85207 90.39755 41 ft 13 kts 324°
2026-04-25 09:16 23.85330 90.39657 39 ft 19 kts 323°
2026-04-25 09:16 23.85405 90.39598 39 ft 21 kts 324°
2026-04-25 09:16 23.85526 90.39501 39 ft 21 kts 323°
2026-04-25 09:16 23.85679 90.39380 39 ft 19 kts 324°
2026-04-25 09:17 23.85771 90.39276 39 ft 8 kts 259°
2026-04-25 09:17 23.85737 90.39220 39 ft 9 kts 233°
2026-04-25 09:17 23.85690 90.39151 39 ft 12 kts 234°
2026-04-25 09:18 23.85632 90.39064 39 ft 14 kts 234°
2026-04-25 09:18 23.85575 90.38979 39 ft 13 kts 233°
2026-04-25 09:18 23.85522 90.38902 39 ft 12 kts 233°
2026-04-25 09:18 23.85467 90.38879 40 ft 8 kts 152°
2026-04-25 09:19 23.85449 90.38894 40 ft 0 kts 142°
2026-04-25 09:19 23.85449 90.38895 40 ft 1 kts 142°
2026-04-25 09:19 23.85320 90.38998 42 ft 58 kts 143°
2026-04-25 09:19 23.84796 90.39414 39 ft 127 kts 144°
2026-04-25 09:20 23.83914 90.40114 118 ft 175 kts 142°
2026-04-25 09:20 23.82954 90.40883 795 ft 177 kts 144°
2026-04-25 09:20 23.81621 90.41932 1751 ft 177 kts 145°
2026-04-25 09:20 23.80949 90.42461 2010 ft 180 kts 145°
2026-04-25 09:21 23.79909 90.43292 2287 ft 188 kts 144°
2026-04-25 09:21 23.78885 90.44170 2669 ft 191 kts 136°
2026-04-25 09:21 23.78188 90.45425 3023 ft 196 kts 102°
2026-04-25 09:21 23.78190 90.46921 3443 ft 205 kts 77°
2026-04-25 09:22 23.78552 90.48473 3837 ft 218 kts 75°
2026-04-25 09:22 23.78935 90.50137 4211 ft 235 kts 76°
2026-04-25 09:22 23.79320 90.51914 4679 ft 247 kts 76°
2026-04-25 09:22 23.79723 90.53772 5100 ft 262 kts 76°
2026-04-25 09:23 23.80158 90.55773 5629 ft 273 kts 77°
2026-04-25 09:23 23.80394 90.57875 5951 ft 288 kts 92°
2026-04-25 09:23 23.79528 90.60580 5985 ft 289 kts 130°
2026-04-25 09:23 23.78066 90.62058 5996 ft 288 kts 143°
2026-04-25 09:24 23.76989 90.62934 5997 ft 287 kts 144°
2026-04-25 09:24 23.75379 90.64243 5988 ft 287 kts 143°
2026-04-25 09:24 23.73809 90.65580 5988 ft 287 kts 142°
2026-04-25 09:24 23.71721 90.67373 5987 ft 286 kts 146°
2026-04-25 09:25 23.69960 90.68494 6159 ft 299 kts 156°
2026-04-25 09:25 23.68701 90.69106 6808 ft 293 kts 159°
2026-04-25 09:25 23.66832 90.69949 7563 ft 295 kts 159°
2026-04-25 09:25 23.64275 90.71102 8408 ft 300 kts 158°
2026-04-25 09:26 23.63011 90.71690 8647 ft 299 kts 158°
2026-04-25 09:26 23.61086 90.72604 8738 ft 303 kts 158°
2026-04-25 09:26 23.59138 90.73541 8734 ft 300 kts 157°
2026-04-25 09:26 23.57249 90.74452 8728 ft 300 kts 157°
2026-04-25 09:27 23.55307 90.75388 8726 ft 300 kts 158°
2026-04-25 09:27 23.53402 90.76305 8731 ft 301 kts 157°
2026-04-25 09:27 23.51473 90.77232 8732 ft 301 kts 158°
2026-04-25 09:27 23.49570 90.78146 8732 ft 300 kts 158°
2026-04-25 09:28 23.46933 90.79356 9078 ft 313 kts 160°
2026-04-25 09:28 23.45604 90.79929 9780 ft 305 kts 160°
2026-04-25 09:28 23.42923 90.81072 10426 ft 322 kts 160°
2026-04-25 09:28 23.41501 90.81675 10682 ft 333 kts 160°
2026-04-25 09:29 23.39277 90.82622 10754 ft 358 kts 160°
2026-04-25 09:29 23.36050 90.84009 10750 ft 384 kts 159°
2026-04-25 09:29 23.33579 90.85255 10744 ft 388 kts 151°
2026-04-25 09:29 23.31304 90.86915 11169 ft 396 kts 143°
2026-04-25 09:30 23.29196 90.88766 11983 ft 395 kts 140°
2026-04-25 09:30 23.27806 90.90060 12481 ft 396 kts 140°
2026-04-25 09:30 23.25719 90.92025 13174 ft 398 kts 140°
2026-04-25 09:30 23.23604 90.93998 13766 ft 404 kts 140°
2026-04-25 09:31 23.21449 90.95978 14379 ft 409 kts 140°
2026-04-25 09:31 23.19259 90.97967 15014 ft 413 kts 140°
2026-04-25 09:31 23.17036 90.99972 15600 ft 419 kts 140°
2026-04-25 09:31 23.14797 91.02004 16195 ft 424 kts 140°
2026-04-25 09:32 23.12530 91.04076 16787 ft 428 kts 140°
2026-04-25 09:32 23.10211 91.06199 17369 ft 433 kts 140°
2026-04-25 09:32 23.07912 91.08307 17975 ft 437 kts 140°
2026-04-25 09:32 23.05572 91.10449 18537 ft 441 kts 140°
2026-04-25 09:33 23.03220 91.12601 19074 ft 446 kts 141°
2026-04-25 09:33 23.00845 91.14767 19696 ft 448 kts 141°
2026-04-25 09:33 22.98470 91.16930 20222 ft 451 kts 141°
2026-04-25 09:33 22.96049 91.19135 20698 ft 456 kts 141°
2026-04-25 09:34 22.93610 91.21355 21242 ft 459 kts 141°
2026-04-25 09:34 22.90329 91.24339 21825 ft 466 kts 141°
2026-04-25 09:34 22.88662 91.25854 22140 ft 469 kts 141°
2026-04-25 09:34 22.86147 91.28140 22648 ft 472 kts 142°
2026-04-25 09:35 22.83621 91.30436 23095 ft 476 kts 142°
2026-04-25 09:35 22.81091 91.32735 23547 ft 479 kts 142°
2026-04-25 09:35 22.78500 91.35088 23995 ft 483 kts 142°
2026-04-25 09:35 22.75922 91.37429 24389 ft 487 kts 143°
2026-04-25 09:36 22.72436 91.40592 24965 ft 492 kts 143°
2026-04-25 09:36 22.70675 91.42189 25229 ft 494 kts 143°
2026-04-25 09:36 22.68030 91.44585 25600 ft 499 kts 143°
2026-04-25 09:36 22.65354 91.47008 26022 ft 501 kts 144°
2026-04-25 09:37 22.62679 91.49430 26382 ft 505 kts 144°
2026-04-25 09:37 22.59969 91.51881 26721 ft 509 kts 144°
2026-04-25 09:37 22.57252 91.54338 27110 ft 512 kts 144°
2026-04-25 09:37 22.54522 91.56807 27761 ft 508 kts 144°
2026-04-25 09:38 22.51841 91.59233 28334 ft 506 kts 145°
2026-04-25 09:38 22.49123 91.61689 28811 ft 506 kts 145°
2026-04-25 09:38 22.46438 91.64111 29164 ft 508 kts 145°
2026-04-25 09:38 22.43710 91.66568 29598 ft 508 kts 146°
2026-04-25 09:39 22.40981 91.69025 30058 ft 507 kts 146°
2026-04-25 09:39 22.38281 91.71457 30501 ft 507 kts 146°
2026-04-25 09:39 22.35586 91.73882 30925 ft 506 kts 146°
2026-04-25 09:40 22.30464 91.79200 31585 ft 516 kts 135°
2026-04-25 09:40 22.28213 91.82277 31925 ft 521 kts 129°
2026-04-25 09:40 22.26252 91.85531 32208 ft 526 kts 123°
2026-04-25 09:40 22.24540 91.89035 32481 ft 530 kts 117°
2026-04-25 09:41 22.23098 91.92781 32711 ft 535 kts 111°
2026-04-25 09:41 22.21995 91.96609 33044 ft 537 kts 105°
2026-04-25 09:41 22.21206 92.00604 33437 ft 538 kts 99°
2026-04-25 09:41 22.20770 92.04590 33916 ft 535 kts 93°
2026-04-25 09:42 22.20670 92.08616 34341 ft 533 kts 87°
2026-04-25 09:42 22.20915 92.12567 34759 ft 530 kts 80°
2026-04-25 09:42 22.21851 92.16431 34780 ft 521 kts 61°
2026-04-25 09:42 22.24298 92.20889 34779 ft 509 kts 49°
2026-04-25 09:43 22.28348 92.27161 34775 ft 511 kts 52°
2026-04-25 09:43 22.31234 92.32769 34779 ft 519 kts 60°
2026-04-25 09:44 22.33633 92.40174 34782 ft 524 kts 72°
2026-04-25 09:44 22.35056 92.47922 34791 ft 528 kts 78°
2026-04-25 09:45 22.36080 92.55784 34794 ft 528 kts 80°
2026-04-25 09:45 22.37033 92.63674 34802 ft 529 kts 79°
2026-04-25 09:46 22.38012 92.71514 34815 ft 528 kts 80°
2026-04-25 09:46 22.39037 92.79396 34834 ft 530 kts 79°
2026-04-25 09:47 22.40081 92.87232 34892 ft 528 kts 79°
2026-04-25 09:47 22.41140 92.95116 34948 ft 529 kts 79°
2026-04-25 09:48 22.42187 93.02912 34991 ft 529 kts 79°
2026-04-25 09:48 22.43233 93.10736 34994 ft 529 kts 79°
2026-04-25 09:49 22.44281 93.18610 34984 ft 529 kts 79°
2026-04-25 09:49 22.45315 93.26427 34978 ft 526 kts 79°
2026-04-25 09:50 22.46357 93.34348 35046 ft 527 kts 79°
2026-04-25 09:50 22.47385 93.42165 35117 ft 527 kts 79°
2026-04-25 09:51 22.48414 93.50015 35179 ft 527 kts 78°
2026-04-25 09:51 22.49437 93.57834 35159 ft 526 kts 79°
2026-04-25 09:52 22.50449 93.65630 35109 ft 526 kts 79°
2026-04-25 09:52 22.51464 93.73491 35041 ft 527 kts 79°
2026-04-25 09:53 22.52467 93.81325 34978 ft 527 kts 79°
2026-04-25 09:53 22.53470 93.89159 34918 ft 527 kts 79°
2026-04-25 09:54 22.54476 93.97039 34857 ft 528 kts 79°
2026-04-25 09:54 22.55470 94.04865 34829 ft 526 kts 79°
2026-04-25 09:55 22.56463 94.12702 34852 ft 526 kts 79°
2026-04-25 09:55 22.57453 94.20550 34880 ft 528 kts 79°
2026-04-25 09:56 22.58434 94.28349 34891 ft 527 kts 79°
2026-04-25 09:56 22.59413 94.36176 34844 ft 526 kts 79°
2026-04-25 09:57 22.60390 94.44003 34807 ft 527 kts 79°
2026-04-25 09:57 22.61368 94.51856 34767 ft 528 kts 79°
2026-04-25 09:58 22.62337 94.59715 34763 ft 526 kts 79°
2026-04-25 09:58 22.63302 94.67551 34754 ft 527 kts 79°
2026-04-25 09:59 22.64263 94.75399 34745 ft 528 kts 79°
2026-04-25 09:59 22.65224 94.83264 34731 ft 531 kts 79°
2026-04-25 10:00 22.66184 94.91157 34737 ft 527 kts 79°
2026-04-25 10:00 22.67138 94.99016 34742 ft 529 kts 79°
2026-04-25 10:01 22.68091 95.06897 34739 ft 530 kts 79°
2026-04-25 10:01 22.69038 95.14790 34736 ft 528 kts 79°
2026-04-25 10:02 22.69982 95.22666 34731 ft 530 kts 79°
2026-04-25 10:02 22.70921 95.30555 34729 ft 530 kts 79°
2026-04-25 10:03 22.71856 95.38448 34726 ft 528 kts 79°
2026-04-25 10:03 22.72783 95.46317 34722 ft 528 kts 79°
2026-04-25 10:04 22.73715 95.54218 34724 ft 530 kts 79°
2026-04-25 10:04 22.74636 95.62086 34725 ft 530 kts 79°
2026-04-25 10:05 22.75557 95.69981 34720 ft 529 kts 79°
2026-04-25 10:05 22.76479 95.77906 34717 ft 529 kts 80°
2026-04-25 10:06 22.77394 95.85827 34719 ft 529 kts 79°
2026-04-25 10:06 22.78301 95.93703 34718 ft 528 kts 79°
2026-04-25 10:07 22.79206 96.01598 34726 ft 528 kts 79°
2026-04-25 10:07 22.80110 96.09525 34764 ft 531 kts 79°
2026-04-25 10:08 22.81003 96.17398 34832 ft 526 kts 79°
2026-04-25 10:08 22.81893 96.25275 34886 ft 528 kts 79°
2026-04-25 10:09 22.82778 96.33145 34911 ft 529 kts 79°
2026-04-25 10:09 22.83656 96.41007 34961 ft 526 kts 79°
2026-04-25 10:10 22.84537 96.48889 35000 ft 526 kts 79°
2026-04-25 10:10 22.85409 96.56702 34989 ft 527 kts 79°
2026-04-25 10:11 22.86279 96.64565 34993 ft 524 kts 79°
2026-04-25 10:11 22.87141 96.72388 34986 ft 528 kts 79°
2026-04-25 10:12 22.88002 96.80287 34981 ft 526 kts 79°
2026-04-25 10:13 22.89290 96.92116 34988 ft 528 kts 79°
2026-04-25 10:13 22.90142 96.99993 34993 ft 526 kts 79°
2026-04-25 10:14 22.90994 97.07861 35022 ft 526 kts 79°
2026-04-25 10:14 22.91836 97.15726 35051 ft 525 kts 80°
2026-04-25 10:15 22.92679 97.23628 35081 ft 529 kts 79°
2026-04-25 10:15 22.93513 97.31486 35064 ft 527 kts 79°
2026-04-25 10:16 22.94352 97.39391 35020 ft 526 kts 80°
2026-04-25 10:16 22.95180 97.47258 34982 ft 526 kts 79°
2026-04-25 10:17 22.95999 97.55082 34960 ft 527 kts 80°
2026-04-25 10:17 22.96823 97.63005 34957 ft 528 kts 80°
2026-04-25 10:18 22.97688 97.70844 34952 ft 526 kts 78°
2026-04-25 10:18 22.99159 97.78590 34955 ft 522 kts 69°
2026-04-25 10:19 23.01457 97.86043 34953 ft 517 kts 64°
2026-04-25 10:19 23.04024 97.93272 34958 ft 518 kts 63°
2026-04-25 10:20 23.06650 98.00586 34966 ft 519 kts 64°
2026-04-25 10:20 23.09212 98.07879 35002 ft 518 kts 64°
2026-04-25 10:21 23.11725 98.15173 35043 ft 519 kts 64°
2026-04-25 10:21 23.14234 98.22539 35081 ft 519 kts 64°
2026-04-25 10:22 23.16726 98.29880 35089 ft 521 kts 64°
2026-04-25 10:22 23.19213 98.37228 35070 ft 519 kts 64°
2026-04-25 10:23 23.21718 98.44636 35053 ft 518 kts 64°
2026-04-25 10:23 23.24184 98.51942 35037 ft 517 kts 65°
2026-04-25 10:24 23.26655 98.59270 35054 ft 519 kts 64°
2026-04-25 10:24 23.29148 98.66678 35070 ft 517 kts 65°
2026-04-25 10:25 23.31615 98.74014 35096 ft 517 kts 65°
2026-04-25 10:25 23.34078 98.81358 35093 ft 517 kts 65°
2026-04-25 10:26 23.36547 98.88728 35064 ft 517 kts 65°
2026-04-25 10:26 23.38979 98.96090 35052 ft 519 kts 66°
2026-04-25 10:27 23.41327 99.03552 35159 ft 525 kts 67°
2026-04-25 10:27 23.43637 99.11041 35233 ft 517 kts 67°
2026-04-25 10:28 23.45919 99.18454 35302 ft 516 kts 66°
2026-04-25 10:28 23.48200 99.25811 35363 ft 518 kts 66°
2026-04-25 10:29 23.50510 99.33248 35347 ft 518 kts 66°
2026-04-25 10:29 23.52992 99.40581 35304 ft 513 kts 60°
2026-04-25 10:30 23.56137 99.47481 35267 ft 510 kts 55°
2026-04-25 10:30 23.59639 99.54188 35256 ft 506 kts 53°
2026-04-25 10:31 23.63187 99.60796 35288 ft 507 kts 53°
2026-04-25 10:31 23.66717 99.67432 35317 ft 504 kts 53°
2026-04-25 10:32 23.70196 99.74058 35351 ft 506 kts 54°
2026-04-25 10:32 23.73698 99.80770 35371 ft 509 kts 54°
2026-04-25 10:33 23.77158 99.87439 35380 ft 505 kts 54°
2026-04-25 10:33 23.80605 99.94097 35371 ft 506 kts 54°
2026-04-25 10:34 23.84069 100.00796 35379 ft 507 kts 54°
2026-04-25 10:34 23.87517 100.07481 35382 ft 502 kts 54°
2026-04-25 10:35 23.90953 100.14139 35395 ft 504 kts 54°
2026-04-25 10:35 23.94366 100.20765 35427 ft 501 kts 54°
2026-04-25 10:36 23.97792 100.27412 35455 ft 507 kts 54°
2026-04-25 10:36 24.01234 100.34114 35425 ft 504 kts 54°
2026-04-25 10:37 24.04660 100.40794 35346 ft 503 kts 54°
2026-04-25 10:37 24.08069 100.47444 35255 ft 500 kts 54°
2026-04-25 10:38 24.11472 100.54089 35209 ft 503 kts 54°
2026-04-25 10:38 24.14825 100.60689 35240 ft 499 kts 55°
2026-04-25 10:39 24.18181 100.67377 35282 ft 502 kts 56°
2026-04-25 10:39 24.21537 100.74099 35326 ft 498 kts 56°
2026-04-25 10:40 24.24851 100.80749 35325 ft 501 kts 56°
2026-04-25 10:40 24.28174 100.87410 35300 ft 500 kts 56°
2026-04-25 10:41 24.31500 100.94080 35284 ft 499 kts 56°
2026-04-25 10:41 24.34828 101.00762 35275 ft 498 kts 56°
2026-04-25 10:42 24.38140 101.07419 35290 ft 497 kts 56°
2026-04-25 10:42 24.41430 101.14040 35294 ft 497 kts 56°
2026-04-25 10:43 24.44739 101.20707 35276 ft 498 kts 56°
2026-04-25 10:43 24.48019 101.27329 35247 ft 495 kts 56°
2026-04-25 10:44 24.51306 101.33972 35219 ft 495 kts 56°
2026-04-25 10:44 24.54579 101.40604 35219 ft 494 kts 56°
2026-04-25 10:45 24.57850 101.47233 35206 ft 494 kts 56°
2026-04-25 10:45 24.61088 101.53810 35208 ft 491 kts 56°
2026-04-25 10:46 24.64338 101.60431 35233 ft 493 kts 57°
2026-04-25 10:46 24.67560 101.67090 35263 ft 492 kts 57°
2026-04-25 10:47 24.70762 101.73737 35281 ft 492 kts 57°
2026-04-25 10:47 24.73936 101.80338 35295 ft 491 kts 57°
2026-04-25 10:48 24.77137 101.86998 35301 ft 490 kts 57°
2026-04-25 10:48 24.80329 101.93639 35297 ft 490 kts 57°
2026-04-25 10:49 24.83499 102.00238 35286 ft 490 kts 57°
2026-04-25 10:49 24.86670 102.06851 35284 ft 488 kts 57°
2026-04-25 10:50 24.89842 102.13477 35303 ft 488 kts 57°
2026-04-25 10:50 24.92989 102.20056 35314 ft 488 kts 57°
2026-04-25 10:51 24.96136 102.26645 35329 ft 487 kts 57°
2026-04-25 10:51 24.99291 102.33259 35356 ft 487 kts 57°
2026-04-25 10:52 25.02427 102.39842 35366 ft 485 kts 57°
2026-04-25 10:52 25.05553 102.46415 35383 ft 486 kts 57°
2026-04-25 10:53 25.08918 102.52863 35364 ft 479 kts 50°
2026-04-25 10:53 25.12971 102.58622 35354 ft 474 kts 44°
2026-04-25 10:54 25.17290 102.64062 35360 ft 472 kts 43°
2026-04-25 10:54 25.21655 102.69498 35377 ft 472 kts 43°
2026-04-25 10:55 25.25984 102.74972 35400 ft 472 kts 44°
2026-04-25 10:55 25.30275 102.80468 35396 ft 472 kts 44°
2026-04-25 10:56 25.34547 102.85980 35369 ft 473 kts 44°
2026-04-25 10:56 25.38811 102.91502 35374 ft 470 kts 44°
2026-04-25 10:57 25.42826 102.97258 35379 ft 475 kts 50°
2026-04-25 10:57 25.46477 103.03354 35398 ft 474 kts 52°
2026-04-25 10:58 25.50061 103.09541 35399 ft 474 kts 53°
2026-04-25 10:58 25.53625 103.15651 35392 ft 473 kts 52°
2026-04-25 10:59 25.57219 103.21752 35400 ft 473 kts 52°
2026-04-25 10:59 25.60804 103.27805 35387 ft 472 kts 52°
2026-04-25 11:00 25.64411 103.33883 35399 ft 471 kts 52°
2026-04-25 11:00 25.68014 103.39949 35409 ft 471 kts 52°
2026-04-25 11:01 25.71591 103.45972 35414 ft 471 kts 52°
2026-04-25 11:01 25.75193 103.52047 35412 ft 470 kts 52°
2026-04-25 11:02 25.78770 103.58092 35413 ft 470 kts 52°
2026-04-25 11:02 25.82343 103.64136 35411 ft 469 kts 52°
2026-04-25 11:03 25.85927 103.70215 35411 ft 467 kts 53°
2026-04-25 11:03 25.89467 103.76225 35403 ft 469 kts 53°
2026-04-25 11:04 25.93047 103.82310 35399 ft 469 kts 53°
2026-04-25 11:04 25.96612 103.88376 35398 ft 470 kts 53°
2026-04-25 11:05 26.00181 103.94423 35383 ft 469 kts 52°
2026-04-25 11:05 26.03792 104.00468 35388 ft 467 kts 53°
2026-04-25 11:06 26.07371 104.06445 35384 ft 469 kts 52°
2026-04-25 11:06 26.10991 104.12502 35376 ft 468 kts 53°
2026-04-25 11:07 26.14603 104.18568 35370 ft 467 kts 53°
2026-04-25 11:07 26.18175 104.24573 35366 ft 469 kts 53°
2026-04-25 11:08 26.21784 104.30649 35339 ft 471 kts 53°
2026-04-25 11:08 26.25371 104.36694 35342 ft 471 kts 53°
2026-04-25 11:09 26.28993 104.42812 35337 ft 469 kts 53°
2026-04-25 11:09 26.32552 104.48829 35324 ft 470 kts 53°
2026-04-25 11:10 26.36140 104.54906 35315 ft 470 kts 53°
2026-04-25 11:10 26.39739 104.61006 35327 ft 469 kts 53°
2026-04-25 11:11 26.43344 104.67123 35331 ft 470 kts 53°
2026-04-25 11:11 26.46927 104.73216 35325 ft 472 kts 53°
2026-04-25 11:12 26.50505 104.79311 35328 ft 470 kts 53°
2026-04-25 11:12 26.54087 104.85419 35325 ft 472 kts 53°
2026-04-25 11:13 26.57679 104.91553 35317 ft 470 kts 53°
2026-04-25 11:13 26.61258 104.97669 35318 ft 471 kts 53°
2026-04-25 11:14 26.64720 105.03862 35309 ft 475 kts 57°
2026-04-25 11:14 26.67644 105.10513 35312 ft 476 kts 62°
2026-04-25 11:15 26.70297 105.17273 35316 ft 475 kts 63°
2026-04-25 11:15 26.72933 105.24073 35322 ft 475 kts 63°
2026-04-25 11:16 26.76934 105.34248 35315 ft 475 kts 62°
2026-04-25 11:16 26.79612 105.40986 35301 ft 474 kts 62°
2026-04-25 11:17 26.82296 105.47718 35295 ft 477 kts 62°
2026-04-25 11:17 26.84982 105.54459 35295 ft 474 kts 62°
2026-04-25 11:18 26.87706 105.61303 35288 ft 475 kts 62°
2026-04-25 11:18 26.90373 105.68019 35281 ft 475 kts 62°
2026-04-25 11:19 26.93067 105.74812 35277 ft 476 kts 62°
2026-04-25 11:19 26.95755 105.81606 35272 ft 474 kts 62°
2026-04-25 11:20 26.98457 105.88438 35260 ft 475 kts 62°
2026-04-25 11:20 27.01130 105.95214 35253 ft 475 kts 62°
2026-04-25 11:21 27.03791 106.01971 35255 ft 475 kts 61°
2026-04-25 11:21 27.06590 106.08653 35251 ft 474 kts 58°
2026-04-25 11:22 27.09628 106.15225 35239 ft 471 kts 57°
2026-04-25 11:22 27.12664 106.21706 35229 ft 473 kts 57°
2026-04-25 11:23 27.15694 106.28245 35228 ft 473 kts 57°
2026-04-25 11:23 27.18710 106.34824 35219 ft 473 kts 57°
2026-04-25 11:24 27.21705 106.41398 35211 ft 473 kts 57°
2026-04-25 11:24 27.24682 106.47950 35195 ft 473 kts 57°
2026-04-25 11:25 27.27676 106.54547 35182 ft 474 kts 57°
2026-04-25 11:25 27.30646 106.61109 35177 ft 473 kts 57°
2026-04-25 11:26 27.33641 106.67733 35171 ft 474 kts 57°
2026-04-25 11:26 27.36621 106.74333 35170 ft 472 kts 57°
2026-04-25 11:27 27.39568 106.80888 35174 ft 474 kts 57°
2026-04-25 11:27 27.42032 106.86392 35179 ft 473 kts 57°
2026-04-25 11:28 27.45476 106.94106 35184 ft 473 kts 57°
2026-04-25 11:28 27.48447 107.00765 35186 ft 474 kts 57°
2026-04-25 11:29 27.51430 107.07378 35189 ft 475 kts 56°
2026-04-25 11:29 27.54415 107.13971 35194 ft 474 kts 56°
2026-04-25 11:30 27.57408 107.20592 35196 ft 475 kts 56°
2026-04-25 11:30 27.60390 107.27205 35192 ft 472 kts 56°
2026-04-25 11:31 27.63382 107.33843 35189 ft 475 kts 56°
2026-04-25 11:31 27.66349 107.40434 35187 ft 475 kts 56°
2026-04-25 11:32 27.69325 107.47062 35184 ft 475 kts 56°
2026-04-25 11:32 27.72282 107.53660 35184 ft 473 kts 56°
2026-04-25 11:33 27.75252 107.60301 35192 ft 474 kts 56°
2026-04-25 11:33 27.78226 107.66963 35202 ft 473 kts 56°
2026-04-25 11:34 27.81177 107.73582 35204 ft 474 kts 56°
2026-04-25 11:34 27.84133 107.80195 35192 ft 473 kts 56°
2026-04-25 11:35 27.87139 107.86797 35176 ft 473 kts 55°
2026-04-25 11:35 27.90173 107.93413 35164 ft 473 kts 55°
2026-04-25 11:36 27.93163 107.99947 35155 ft 472 kts 55°
2026-04-25 11:36 27.96177 108.06549 35149 ft 474 kts 55°
2026-04-25 11:37 27.99194 108.13184 35144 ft 472 kts 55°
2026-04-25 11:37 28.02174 108.19752 35143 ft 473 kts 55°
2026-04-25 11:38 28.05171 108.26369 35136 ft 472 kts 55°
2026-04-25 11:38 28.08170 108.33006 35136 ft 472 kts 55°
2026-04-25 11:39 28.11144 108.39589 35137 ft 473 kts 55°
2026-04-25 11:39 28.14118 108.46195 35133 ft 470 kts 55°
2026-04-25 11:40 28.17091 108.52805 35131 ft 472 kts 55°
2026-04-25 11:40 28.20072 108.59441 35142 ft 473 kts 55°
2026-04-25 11:41 28.23041 108.66057 35151 ft 471 kts 55°
2026-04-25 11:41 28.26007 108.72682 35160 ft 474 kts 55°
2026-04-25 11:42 28.28965 108.79302 35162 ft 471 kts 55°
2026-04-25 11:42 28.31948 108.85988 35147 ft 472 kts 55°
2026-04-25 11:43 28.34925 108.92664 35135 ft 471 kts 55°
2026-04-25 11:43 28.37853 108.99256 35119 ft 471 kts 55°
2026-04-25 11:44 28.40796 109.05882 35108 ft 470 kts 55°
2026-04-25 11:44 28.43722 109.12482 35107 ft 470 kts 55°
2026-04-25 11:45 28.46648 109.19104 35098 ft 468 kts 55°
2026-04-25 11:45 28.49574 109.25734 35200 ft 471 kts 55°
2026-04-25 11:46 28.51038 109.29058 35583 ft 472 kts 55°
2026-04-25 11:46 28.52499 109.32388 36169 ft 467 kts 55°
2026-04-25 11:46 28.53924 109.35644 36651 ft 464 kts 55°
2026-04-25 11:46 28.55365 109.38934 37011 ft 464 kts 55°
2026-04-25 11:47 28.58258 109.45568 37094 ft 470 kts 56°
2026-04-25 11:47 28.60819 109.52458 37096 ft 475 kts 60°
2026-04-25 11:48 28.63138 109.59428 37089 ft 475 kts 61°
2026-04-25 11:48 28.65462 109.66479 37084 ft 473 kts 61°
2026-04-25 11:49 28.67860 109.73458 37091 ft 471 kts 60°
2026-04-25 11:49 28.70321 109.80345 37103 ft 473 kts 59°
2026-04-25 11:50 28.72818 109.87270 37114 ft 471 kts 59°
2026-04-25 11:50 28.75291 109.94151 37133 ft 470 kts 59°
2026-04-25 11:51 28.77741 110.01007 37146 ft 469 kts 59°
2026-04-25 11:51 28.80202 110.07914 37137 ft 469 kts 59°
2026-04-25 11:52 28.82652 110.14809 37126 ft 468 kts 59°
2026-04-25 11:52 28.85124 110.21768 37109 ft 470 kts 59°
2026-04-25 11:53 28.87580 110.28708 37109 ft 468 kts 59°
2026-04-25 11:53 28.90021 110.35615 37107 ft 470 kts 59°
2026-04-25 11:54 28.92434 110.42475 37112 ft 465 kts 59°
2026-04-25 11:55 28.96053 110.52769 37115 ft 463 kts 59°
2026-04-25 11:55 28.98441 110.59575 37116 ft 466 kts 59°
2026-04-25 11:56 29.00846 110.66437 37100 ft 461 kts 59°
2026-04-25 11:56 29.03229 110.73251 37097 ft 463 kts 59°
2026-04-25 11:57 29.05637 110.80079 37099 ft 462 kts 59°
2026-04-25 11:57 29.08035 110.86834 37098 ft 460 kts 59°
2026-04-25 11:58 29.10444 110.93619 37105 ft 463 kts 59°
2026-04-25 11:58 29.12847 111.00421 37102 ft 459 kts 59°
2026-04-25 11:59 29.15236 111.07198 37097 ft 461 kts 59°
2026-04-25 11:59 29.17632 111.14003 37090 ft 461 kts 59°
2026-04-25 12:00 29.21195 111.24178 37080 ft 459 kts 59°
2026-04-25 12:01 29.24743 111.34320 37070 ft 458 kts 59°
2026-04-25 12:01 29.27088 111.41046 37069 ft 455 kts 59°
2026-04-25 12:02 29.30592 111.51107 37062 ft 455 kts 59°
2026-04-25 12:02 29.32929 111.57831 37062 ft 455 kts 59°
2026-04-25 12:03 29.35361 111.64462 37073 ft 447 kts 54°
2026-04-25 12:03 29.38458 111.70620 37076 ft 443 kts 49°
2026-04-25 12:04 29.41849 111.76480 37067 ft 439 kts 47°
2026-04-25 12:04 29.45244 111.82261 37015 ft 433 kts 47°
2026-04-25 12:05 29.48597 111.88025 37074 ft 439 kts 47°
2026-04-25 12:05 29.51975 111.93893 37076 ft 439 kts 47°
2026-04-25 12:06 29.55293 111.99719 37066 ft 435 kts 47°
2026-04-25 12:06 29.58628 112.05568 37059 ft 439 kts 47°
2026-04-25 12:07 29.61926 112.11382 37055 ft 434 kts 48°
2026-04-25 12:07 29.65264 112.17265 37054 ft 437 kts 48°
2026-04-25 12:08 29.68560 112.23089 37053 ft 432 kts 47°
2026-04-25 12:08 29.71842 112.28896 37051 ft 434 kts 47°
2026-04-25 12:09 29.75156 112.34752 37053 ft 432 kts 48°
2026-04-25 12:09 29.78457 112.40589 37056 ft 436 kts 48°
2026-04-25 12:10 29.81719 112.46461 37055 ft 436 kts 49°
2026-04-25 12:10 29.84995 112.52319 37064 ft 432 kts 48°
2026-04-25 12:11 29.88206 112.58128 37075 ft 431 kts 49°
2026-04-25 12:11 29.91469 112.63960 37064 ft 434 kts 48°
2026-04-25 12:12 29.94725 112.69782 37070 ft 433 kts 49°
2026-04-25 12:12 29.97961 112.75602 37065 ft 431 kts 49°
2026-04-25 12:13 30.01203 112.81427 37049 ft 430 kts 49°
2026-04-25 12:13 30.04450 112.87203 37044 ft 431 kts 49°
2026-04-25 12:14 30.07688 112.93048 37048 ft 433 kts 49°
2026-04-25 12:14 30.10900 112.98878 37054 ft 430 kts 49°
2026-04-25 12:15 30.14086 113.04737 37067 ft 433 kts 49°
2026-04-25 12:15 30.17301 113.10638 37050 ft 434 kts 49°
2026-04-25 12:16 30.20540 113.16538 37069 ft 435 kts 49°
2026-04-25 12:16 30.23771 113.22366 37061 ft 430 kts 49°
2026-04-25 12:17 30.27050 113.28197 37074 ft 433 kts 49°
2026-04-25 12:17 30.30338 113.34026 37072 ft 433 kts 49°
2026-04-25 12:18 30.33615 113.39862 37064 ft 434 kts 49°
2026-04-25 12:18 30.36900 113.45733 37235 ft 434 kts 49°
2026-04-25 12:19 30.39640 113.50640 37068 ft 432 kts 49°
2026-04-25 12:19 30.41794 113.54508 37066 ft 430 kts 49°
2026-04-25 12:20 30.45026 113.60310 37067 ft 429 kts 49°
2026-04-25 12:20 30.48284 113.66166 37069 ft 433 kts 49°
2026-04-25 12:20 30.49903 113.69080 36876 ft 431 kts 49°
2026-04-25 12:21 30.51518 113.71992 37092 ft 433 kts 49°
2026-04-25 12:21 30.54761 113.77840 37072 ft 431 kts 49°
2026-04-25 12:22 30.57978 113.83662 36885 ft 430 kts 49°
2026-04-25 12:22 30.59605 113.86608 37049 ft 430 kts 49°
2026-04-25 12:22 30.61214 113.89516 37064 ft 434 kts 50°
2026-04-25 12:23 30.64477 113.95405 37068 ft 433 kts 49°
2026-04-25 12:23 30.67712 114.01276 37066 ft 433 kts 50°
2026-04-25 12:24 30.70967 114.07172 37067 ft 436 kts 50°
2026-04-25 12:24 30.74223 114.13088 37077 ft 431 kts 50°
2026-04-25 12:25 30.77376 114.18993 37071 ft 436 kts 53°
2026-04-25 12:25 30.79988 114.25448 37066 ft 443 kts 60°
2026-04-25 12:26 30.82218 114.32110 37077 ft 446 kts 62°
2026-04-25 12:26 30.84377 114.38923 37093 ft 446 kts 62°
2026-04-25 12:27 30.86494 114.45641 37086 ft 446 kts 62°
2026-04-25 12:27 30.88658 114.52413 37078 ft 446 kts 62°
2026-04-25 12:28 30.90846 114.59188 37083 ft 447 kts 62°
2026-04-25 12:28 30.93009 114.65891 37074 ft 444 kts 62°
2026-04-25 12:29 30.95187 114.72646 37071 ft 444 kts 62°
2026-04-25 12:29 30.97356 114.79374 37095 ft 446 kts 63°
2026-04-25 12:30 30.99525 114.86111 37091 ft 444 kts 62°
2026-04-25 12:30 31.01704 114.92888 37084 ft 445 kts 63°
2026-04-25 12:31 31.03873 114.99625 37091 ft 447 kts 63°
2026-04-25 12:31 31.06041 115.06396 37095 ft 446 kts 63°
2026-04-25 12:32 31.08199 115.13158 37109 ft 446 kts 63°
2026-04-25 12:32 31.10356 115.19930 37121 ft 446 kts 63°
2026-04-25 12:33 31.12500 115.26698 37128 ft 446 kts 63°
2026-04-25 12:33 31.14652 115.33459 37122 ft 447 kts 63°
2026-04-25 12:34 31.16848 115.40239 37143 ft 445 kts 63°
2026-04-25 12:34 31.19041 115.46995 37139 ft 444 kts 63°
2026-04-25 12:35 31.21229 115.53755 37149 ft 446 kts 63°
2026-04-25 12:35 31.23406 115.60505 37146 ft 445 kts 63°
2026-04-25 12:36 31.25584 115.67281 37182 ft 448 kts 63°
2026-04-25 12:36 31.27772 115.74099 37189 ft 448 kts 63°
2026-04-25 12:37 31.29941 115.80881 37168 ft 446 kts 64°
2026-04-25 12:37 31.32107 115.87676 37172 ft 447 kts 64°
2026-04-25 12:38 31.34298 115.94479 37159 ft 447 kts 63°
2026-04-25 12:38 31.36492 116.01194 37151 ft 446 kts 63°
2026-04-25 12:39 31.38713 116.07980 37136 ft 446 kts 63°
2026-04-25 12:39 31.40929 116.14783 37144 ft 451 kts 63°
2026-04-25 12:40 31.43144 116.21620 37139 ft 447 kts 63°
2026-04-25 12:40 31.45334 116.28395 37127 ft 447 kts 63°
2026-04-25 12:41 31.47526 116.35188 37116 ft 448 kts 63°
2026-04-25 12:41 31.49723 116.42009 37112 ft 449 kts 63°
2026-04-25 12:42 31.51906 116.48812 37114 ft 447 kts 63°
2026-04-25 12:42 31.54102 116.55656 37104 ft 447 kts 63°
2026-04-25 12:43 31.56253 116.62395 36805 ft 439 kts 63°
2026-04-25 12:43 31.57323 116.65754 36212 ft 437 kts 64°
2026-04-25 12:43 31.59448 116.72418 34964 ft 438 kts 63°
2026-04-25 12:44 31.60513 116.75764 34344 ft 439 kts 63°
2026-04-25 12:44 31.61583 116.79127 33688 ft 440 kts 63°
2026-04-25 12:44 31.63687 116.85749 32562 ft 434 kts 63°
2026-04-25 12:45 31.64728 116.89036 31889 ft 434 kts 63°
2026-04-25 12:45 31.65778 116.92345 31168 ft 434 kts 63°
2026-04-25 12:45 31.67861 116.98931 30224 ft 422 kts 63°
2026-04-25 12:46 31.68868 117.02145 29805 ft 415 kts 63°
2026-04-25 12:46 31.69853 117.05307 29212 ft 413 kts 64°
2026-04-25 12:46 31.70828 117.08453 28541 ft 413 kts 64°
2026-04-25 12:46 31.71804 117.11609 28000 ft 409 kts 64°
2026-04-25 12:47 31.72769 117.14743 27382 ft 408 kts 64°
2026-04-25 12:47 31.73727 117.17851 26801 ft 405 kts 65°
2026-04-25 12:47 31.74642 117.20947 26265 ft 404 kts 68°
2026-04-25 12:47 31.75289 117.24187 25623 ft 408 kts 77°
2026-04-25 12:48 31.75452 117.27501 25113 ft 410 kts 87°
2026-04-25 12:48 31.75110 117.30827 24564 ft 413 kts 97°
2026-04-25 12:48 31.74312 117.34036 24031 ft 414 kts 106°
2026-04-25 12:48 31.73160 117.37146 23460 ft 415 kts 114°
2026-04-25 12:49 31.71710 117.40046 22991 ft 413 kts 120°
2026-04-25 12:49 31.70089 117.42821 22510 ft 410 kts 122°
2026-04-25 12:49 31.68409 117.45519 22017 ft 406 kts 123°
2026-04-25 12:49 31.66740 117.48144 21542 ft 402 kts 124°
2026-04-25 12:50 31.65088 117.50742 21045 ft 399 kts 123°
2026-04-25 12:50 31.63473 117.53361 20559 ft 394 kts 121°
2026-04-25 12:50 31.62111 117.56127 20105 ft 387 kts 111°
2026-04-25 12:50 31.61233 117.59035 19612 ft 380 kts 100°
2026-04-25 12:51 31.60842 117.62077 19077 ft 373 kts 89°
2026-04-25 12:51 31.60949 117.65047 18540 ft 361 kts 80°
2026-04-25 12:51 31.61368 117.67896 18196 ft 344 kts 76°
2026-04-25 12:51 31.61842 117.70569 17834 ft 330 kts 76°
2026-04-25 12:52 31.62269 117.73173 17356 ft 322 kts 77°
2026-04-25 12:52 31.62617 117.75725 16722 ft 320 kts 80°
2026-04-25 12:52 31.62908 117.78320 16086 ft 318 kts 81°
2026-04-25 12:52 31.63162 117.80863 15462 ft 315 kts 82°
2026-04-25 12:53 31.63405 117.83431 14810 ft 313 kts 82°
2026-04-25 12:53 31.63642 117.85939 14192 ft 311 kts 82°
2026-04-25 12:53 31.63881 117.88442 13579 ft 308 kts 82°
2026-04-25 12:53 31.64120 117.90920 13019 ft 305 kts 82°
2026-04-25 12:54 31.64359 117.93393 12678 ft 304 kts 82°
2026-04-25 12:54 31.64594 117.95824 12431 ft 297 kts 82°
2026-04-25 12:54 31.64822 117.98183 12192 ft 292 kts 82°
2026-04-25 12:54 31.65050 118.00551 11893 ft 290 kts 82°
2026-04-25 12:55 31.65273 118.02886 11591 ft 286 kts 82°
2026-04-25 12:55 31.65420 118.04420 11395 ft 283 kts 82°
2026-04-25 12:55 31.65712 118.07462 11021 ft 278 kts 82°
2026-04-25 12:55 31.65924 118.09691 10775 ft 273 kts 82°
2026-04-25 12:56 31.66135 118.11893 10525 ft 268 kts 82°
2026-04-25 12:56 31.66340 118.14053 10278 ft 264 kts 81°
2026-04-25 12:56 31.66542 118.16188 10030 ft 260 kts 82°
2026-04-25 12:56 31.66687 118.18259 9787 ft 257 kts 85°
2026-04-25 12:57 31.66728 118.20351 9542 ft 253 kts 88°
2026-04-25 12:57 31.66717 118.22388 9294 ft 250 kts 89°
2026-04-25 12:57 31.66704 118.24425 9043 ft 248 kts 88°
2026-04-25 12:57 31.66703 118.26452 8740 ft 247 kts 88°
2026-04-25 12:58 31.66709 118.28451 8449 ft 246 kts 88°
2026-04-25 12:58 31.66716 118.30472 8160 ft 245 kts 88°
2026-04-25 12:58 31.66723 118.32460 7865 ft 245 kts 88°
2026-04-25 12:58 31.66729 118.34438 7587 ft 243 kts 88°
2026-04-25 12:59 31.66735 118.36421 7294 ft 243 kts 88°
2026-04-25 12:59 31.66741 118.38393 7030 ft 241 kts 88°
2026-04-25 12:59 31.66746 118.40355 6753 ft 240 kts 89°
2026-04-25 12:59 31.66619 118.42284 6475 ft 239 kts 102°
2026-04-25 13:00 31.66046 118.44118 6195 ft 238 kts 115°
2026-04-25 13:00 31.65551 118.45263 6082 ft 233 kts 117°
2026-04-25 13:00 31.64580 118.47509 5665 ft 232 kts 115°
2026-04-25 13:00 31.63887 118.49216 5330 ft 231 kts 114°
2026-04-25 13:01 31.63217 118.50920 5002 ft 231 kts 114°
2026-04-25 13:01 31.62546 118.52639 4697 ft 229 kts 114°
2026-04-25 13:01 31.61892 118.54308 4393 ft 228 kts 114°
2026-04-25 13:01 31.61232 118.55990 4099 ft 225 kts 114°
2026-04-25 13:02 31.60574 118.57661 3811 ft 223 kts 114°
2026-04-25 13:02 31.60034 118.59322 3601 ft 216 kts 102°
2026-04-25 13:02 31.60023 118.61041 3395 ft 210 kts 78°
2026-04-25 13:02 31.60383 118.62689 3195 ft 204 kts 75°
2026-04-25 13:03 31.60724 118.64275 3020 ft 198 kts 76°
2026-04-25 13:03 31.61131 118.65781 2910 ft 188 kts 65°
2026-04-25 13:03 31.61791 118.67069 2740 ft 181 kts 56°
2026-04-25 13:03 31.62483 118.68300 2416 ft 183 kts 59°
2026-04-25 13:04 31.63140 118.69564 2268 ft 179 kts 59°
2026-04-25 13:04 31.63815 118.70830 2286 ft 184 kts 58°
2026-04-25 13:04 31.64494 118.72084 2287 ft 184 kts 58°
2026-04-25 13:04 31.65176 118.73347 2269 ft 182 kts 59°
2026-04-25 13:05 31.65820 118.74545 2127 ft 162 kts 59°
2026-04-25 13:05 31.66412 118.75643 1840 ft 154 kts 59°
2026-04-25 13:05 31.66974 118.76686 1664 ft 150 kts 60°
2026-04-25 13:05 31.67526 118.77715 1458 ft 150 kts 60°
2026-04-25 13:06 31.68084 118.78752 1267 ft 150 kts 59°
2026-04-25 13:06 31.68644 118.79791 1065 ft 149 kts 60°
2026-04-25 13:06 31.69193 118.80814 868 ft 149 kts 59°
2026-04-25 13:06 31.69761 118.81849 641 ft 150 kts 58°
2026-04-25 13:07 31.70325 118.82873 449 ft 148 kts 60°
2026-04-25 13:07 31.70875 118.83908 272 ft 150 kts 59°
2026-04-25 13:07 31.71424 118.84935 87 ft 150 kts 60°
2026-04-25 13:07 31.71921 118.85880 56 ft 101 kts 57°
2026-04-25 13:08 31.72163 118.86331 56 ft 34 kts 59°
2026-04-25 13:08 31.72278 118.86535 56 ft 19 kts 51°
2026-04-25 13:08 31.72374 118.86642 56 ft 18 kts 37°
2026-04-25 13:08 31.72470 118.86710 56 ft 10 kts 31°
2026-04-25 13:09 31.72532 118.86710 56 ft 9 kts 312°
2026-04-25 13:09 31.72566 118.86643 56 ft 9 kts 310°
2026-04-25 13:09 31.72636 118.86587 56 ft 15 kts 328°
2026-04-25 13:09 31.72750 118.86504 56 ft 22 kts 328°
2026-04-25 13:10 31.72883 118.86407 56 ft 22 kts 328°
2026-04-25 13:10 31.73015 118.86310 56 ft 21 kts 328°
2026-04-25 13:10 31.73142 118.86217 56 ft 21 kts 328°
2026-04-25 13:10 31.73266 118.86128 56 ft 20 kts 327°
2026-04-25 13:11 31.73386 118.86037 56 ft 20 kts 328°
2026-04-25 13:11 31.73506 118.85951 56 ft 19 kts 329°
2026-04-25 13:11 31.73620 118.85867 56 ft 19 kts 327°
2026-04-25 13:11 31.73690 118.85832 56 ft 9 kts 12°
2026-04-25 13:12 31.73733 118.85886 56 ft 9 kts 58°
2026-04-25 13:12 31.73775 118.85967 56 ft 13 kts 59°
2026-04-25 13:12 31.73832 118.86076 56 ft 17 kts 58°
2026-04-25 13:12 31.73880 118.86165 56 ft 20 kts 58°
2026-04-25 13:13 31.73988 118.86364 56 ft 21 kts 54°
2026-04-25 13:13 31.74067 118.86510 56 ft 21 kts 58°
2026-04-25 13:13 31.74145 118.86655 56 ft 20 kts 58°
2026-04-25 13:13 31.74219 118.86794 56 ft 20 kts 57°
2026-04-25 13:14 31.74292 118.86932 56 ft 19 kts 58°
2026-04-25 13:14 31.74357 118.87054 56 ft 15 kts 58°
2026-04-25 13:14 31.74408 118.87148 56 ft 11 kts 58°
2026-04-25 13:14 31.74420 118.87220 56 ft 9 kts 134°
2026-04-25 13:15 31.74377 118.87251 56 ft 2 kts 149°
2026-04-25 13:15 31.74363 118.87261 56 ft 1 kts 149°
2026-04-25 13:15 31.74362 118.87262 56 ft 0 kts 148°